Stations météo

réclame
Mon MeteoGroup
Gourette, France (7775): Température de l'air & dewpoint: 11.01.2018 01:00:00 - 17.01.2018 01:00:00 (CET)Gourette, France (7775): Vitesse du vent & gusts: 11.01.2018 01:00:00 - 17.01.2018 01:00:00 (CET)Gourette, France (7775): Direction du vent: 11.01.2018 01:00:00 - 17.01.2018 01:00:00 (CET)Gourette, France (7775): reduced air pressure: 11.01.2018 01:00:00 - 17.01.2018 01:00:00 (CET)Gourette, France (7775): visibility: 11.01.2018 01:00:00 - 17.01.2018 01:00:00 (CET)Gourette, France (7775): Quantités de précipitations: 11.01.2018 01:00:00 - 17.01.2018 01:00:00 (CET)
Date & Time tt [°C] td [°C] ff [km/h] ff [knt] fx [km/h] fx [knt] dd ppp [hPa] vv [km] rr [mm]
17.01.2018 01:00:00 18,5 3,1 42 23 100 54 W 1006,3 - 0,0
17.01.2018 00:00:00 18,8 3,8 52 28 120 65 W 1006,8 - 0,0
16.01.2018 23:00:00 18,5 3,5 40 21 96 52 W 1007,0 - 0,0
16.01.2018 22:00:00 17,8 3,6 42 23 94 51 WSW 1007,1 - 0,0
16.01.2018 21:00:00 18,4 3,0 48 26 94 51 W 1008,0 - 0,0
16.01.2018 20:00:00 16,4 5,4 16 9 65 35 SW 1008,4 - 0,0
16.01.2018 19:00:00 17,3 4,3 25 13 85 46 NW 1008,7 20 0,0
16.01.2018 18:00:00 17,8 3,3 40 22 99 53 W 1008,2 - 0,0
16.01.2018 17:00:00 17,7 3,6 41 22 103 55 W 1008,3 - 0,0
16.01.2018 16:00:00 18,7 4,1 51 28 94 51 W 1008,2 - 0,0
16.01.2018 15:00:00 18,8 4,2 46 25 96 52 W 1008,7 - 0,0
16.01.2018 14:00:00 18,9 3,5 49 26 91 49 W 1009,6 - 0,0
16.01.2018 13:00:00 19,7 5,3 27 15 52 28 SW 1010,4 20 0,0
16.01.2018 12:00:00 18,8 5,6 15 8 35 19 WSW 1011,7 - 0,0
16.01.2018 11:00:00 16,1 6,8 7 4 24 13 W 1012,7 - 0,0
16.01.2018 10:00:00 14,8 5,3 4 2 19 11 WNW 1013,6 - 0,0
16.01.2018 09:00:00 11,4 4,1 8 4 20 11 NE 1013,9 - 0,0
16.01.2018 08:00:00 9,1 3,1 7 4 17 9 NNE 1014,0 - 0,0
16.01.2018 07:00:00 9,2 2,7 8 4 22 12 N 1014,6 15 0,0
16.01.2018 06:00:00 8,4 2,6 4 2 18 10 E 1015,2 - 0,0
16.01.2018 05:00:00 7,7 3,4 18 10 27 15 SSW 1015,7 - 0,0
16.01.2018 04:00:00 8,8 3,0 19 10 26 14 SSW 1016,4 - 0,0
16.01.2018 03:00:00 8,2 2,8 14 7 20 11 SW 1017,5 - 0,0
16.01.2018 02:00:00 8,1 2,5 12 6 19 10 SSW 1018,1 - 0,0
16.01.2018 01:00:00 8,7 2,9 3 2 12 7 SW 1019,0 - 0,0
16.01.2018 00:00:00 10,4 3,7 7 4 18 10 WNW 1019,5 - 0,0
15.01.2018 23:00:00 9,8 5,6 8 5 18 10 W 1019,9 - 0,0
15.01.2018 22:00:00 8,9 5,1 10 5 16 9 SSW 1019,9 - 0,0
15.01.2018 21:00:00 8,4 5,5 14 7 18 10 SW 1020,1 - 0,0
15.01.2018 20:00:00 9,7 5,9 10 6 14 8 W 1020,1 - 0,0
15.01.2018 19:00:00 9,0 5,6 8 4 12 7 WSW 1020,2 15 0,0
15.01.2018 18:00:00 10,1 6,2 5 3 11 6 NW 1020,7 - 0,0
15.01.2018 17:00:00 11,4 6,5 9 5 18 10 S 1020,8 - 0,0
15.01.2018 16:00:00 13,2 7,6 14 7 21 11 S 1020,4 15 0,0
15.01.2018 15:00:00 12,4 6,9 11 6 18 10 SE 1020,6 - 0,0
15.01.2018 14:00:00 13,9 6,7 11 6 19 11 E 1020,9 - 0,0
15.01.2018 13:00:00 13,7 6,5 13 7 19 10 E 1021,5 - 0,0
15.01.2018 12:00:00 13,9 5,3 11 6 16 9 ESE 1022,5 - 0,0
15.01.2018 11:00:00 14,7 4,9 6 3 14 7 S 1023,1 - 0,0
15.01.2018 10:00:00 13,6 5,7 7 4 11 6 SW 1022,7 - 0,0
15.01.2018 09:00:00 10,6 4,5 9 5 11 6 W 1022,3 - 0,0
15.01.2018 08:00:00 9,7 4,5 7 4 11 6 W 1022,0 - 0,0
15.01.2018 07:00:00 9,7 4,7 4 2 8 4 W 1021,4 - 0,0
15.01.2018 06:00:00 10,0 4,8 4 2 8 4 W 1021,3 - 0,0
15.01.2018 05:00:00 10,6 4,7 0 0 6 3 N 1021,3 - 0,0
15.01.2018 04:00:00 10,2 4,3 5 3 9 5 WSW 1021,5 - 0,0
15.01.2018 03:00:00 10,0 4,1 9 5 9 5 WSW 1021,8 - 0,0
15.01.2018 02:00:00 9,8 4,4 4 2 8 4 W 1021,7 - 0,0
15.01.2018 01:00:00 9,9 4,3 4 2 7 4 WSW 1021,7 - 0,0
15.01.2018 00:00:00 9,9 4,3 5 3 6 3 WSW 1021,9 - 0,0
14.01.2018 23:00:00 9,9 4,5 5 3 8 4 SW 1021,7 - 0,0
14.01.2018 22:00:00 10,4 4,1 6 3 12 7 W 1021,6 - 0,0
14.01.2018 21:00:00 10,2 3,7 9 5 12 7 NW 1021,3 - 0,0
14.01.2018 20:00:00 10,0 3,7 9 5 11 6 W 1020,8 - 0,0
14.01.2018 19:00:00 9,1 3,3 9 5 13 7 WSW 1020,6 25 0,0
14.01.2018 18:00:00 9,2 3,4 9 5 10 5 WSW 1020,1 - 0,0
14.01.2018 17:00:00 10,3 3,3 8 4 12 6 S 1019,7 - 0,0
14.01.2018 16:00:00 12,3 3,2 8 4 17 9 SSE 1019,2 25 0,0
14.01.2018 15:00:00 13,1 3,7 9 5 18 10 SSE 1019,1 - 0,0
14.01.2018 14:00:00 12,8 2,0 8 5 21 11 ESE 1019,2 - 0,0
14.01.2018 13:00:00 13,4 2,6 10 5 18 10 E 1019,3 - 0,0
14.01.2018 12:00:00 13,0 2,8 10 6 17 9 E 1019,8 - 0,0
14.01.2018 11:00:00 13,7 2,0 4 2 11 6 S 1020,2 - 0,0
14.01.2018 10:00:00 11,0 2,8 10 6 15 8 NW 1020,1 18 0,0
14.01.2018 09:00:00 9,0 1,9 13 7 19 11 NW 1019,8 - 0,0
14.01.2018 08:00:00 8,4 1,8 16 9 20 11 NW 1019,5 - 0,0
14.01.2018 07:00:00 9,1 1,7 14 8 19 10 NW 1019,4 20 0,0
14.01.2018 06:00:00 9,0 1,6 16 9 22 12 NW 1019,3 - 0,0
14.01.2018 05:00:00 8,5 1,4 17 9 24 13 NW 1019,1 - 0,0
14.01.2018 04:00:00 8,2 1,3 18 10 24 13 NNW 1019,4 - 0,0
14.01.2018 03:00:00 7,9 1,1 20 11 25 14 NNW 1019,6 - 0,0
14.01.2018 02:00:00 8,6 1,0 19 10 24 13 NNW 1019,7 - 0,0
14.01.2018 01:00:00 8,4 1,5 16 9 24 13 NNW 1019,9 - 0,0
14.01.2018 00:00:00 8,7 1,8 17 9 24 13 NNW 1020,5 - 0,0
13.01.2018 23:00:00 9,3 1,2 18 10 23 12 NW 1020,6 - 0,0
13.01.2018 22:00:00 9,3 1,2 19 10 23 12 NW 1020,4 - 0,0
13.01.2018 21:00:00 9,3 0,7 17 9 21 12 NW 1020,4 - 0,0
13.01.2018 20:00:00 9,4 0,8 16 8 19 10 NW 1020,6 - 0,0
13.01.2018 19:00:00 9,5 0,6 13 7 21 12 NNW 1020,2 - 0,0
13.01.2018 18:00:00 8,9 1,5 18 10 26 14 N 1020,2 - 0,0
13.01.2018 17:00:00 9,8 2,9 18 10 35 19 N 1019,9 - 0,0
13.01.2018 16:00:00 12,7 3,1 18 10 43 23 N 1019,8 - 0,0
13.01.2018 15:00:00 13,6 3,6 24 13 46 25 NNE 1019,6 - 0,0
13.01.2018 14:00:00 13,7 3,5 31 17 47 26 N 1019,6 - 0,0
13.01.2018 13:00:00 14,1 3,8 31 17 46 25 NNE 1019,9 - 0,0
13.01.2018 12:00:00 13,1 4,5 24 13 40 22 N 1020,5 - 0,0
13.01.2018 11:00:00 13,3 3,9 12 7 26 14 N 1020,8 - 0,0
13.01.2018 10:00:00 10,4 3,7 16 9 24 13 N 1021,0 18 0,0
13.01.2018 09:00:00 10,1 3,4 16 9 23 12 N 1020,8 - 0,0
13.01.2018 08:00:00 9,5 2,8 17 9 34 19 NNW 1020,5 - 0,0
13.01.2018 07:00:00 9,2 2,7 20 11 34 18 N 1020,3 - 0,0
13.01.2018 06:00:00 9,1 3,3 21 11 32 17 N 1020,2 - 0,0
13.01.2018 05:00:00 9,1 3,1 22 12 34 19 NNW 1020,0 - 0,0
13.01.2018 04:00:00 9,3 3,1 21 11 32 18 NNW 1020,0 - 0,0
13.01.2018 03:00:00 8,8 3,0 21 11 29 16 N 1020,3 - 0,0
13.01.2018 02:00:00 8,9 3,3 20 11 32 18 NNW 1020,1 - 0,0
13.01.2018 01:00:00 9,1 2,9 20 11 32 18 NNW 1020,0 - 0,0
13.01.2018 00:00:00 8,9 3,5 19 11 32 18 N 1020,0 - 0,0
12.01.2018 23:00:00 9,2 3,6 20 11 34 18 N 1019,7 - 0,0
12.01.2018 22:00:00 9,2 4,0 22 12 36 19 N 1019,4 - 0,0
12.01.2018 21:00:00 9,8 4,2 22 12 34 19 N 1019,0 - 0,0
12.01.2018 20:00:00 10,5 4,6 21 11 35 19 N 1018,7 - 0,0
12.01.2018 19:00:00 11,0 4,2 21 11 31 17 NNW 1018,2 - 0,0
12.01.2018 18:00:00 11,0 4,2 20 11 35 19 N 1017,7 - 0,0
12.01.2018 17:00:00 10,9 4,4 24 13 40 21 N 1017,1 - 0,0
12.01.2018 16:00:00 11,3 5,2 23 12 38 21 N 1016,6 - 0,0
12.01.2018 15:00:00 12,6 5,7 25 13 44 24 N 1015,9 - 0,0
12.01.2018 14:00:00 12,1 5,9 23 12 41 22 N 1015,5 - 0,0
12.01.2018 13:00:00 11,1 5,8 18 10 36 20 N 1015,7 25 0,0
12.01.2018 12:00:00 11,7 6,2 26 14 36 19 N 1016,0 - 0,0
12.01.2018 11:00:00 10,7 6,3 22 12 36 19 N 1016,2 - 0,0
12.01.2018 10:00:00 10,2 6,3 21 11 37 20 N 1015,6 - 0,0
12.01.2018 09:00:00 9,9 6,4 22 12 35 19 N 1014,8 - 0,0
12.01.2018 08:00:00 9,5 6,4 23 12 43 23 N 1014,1 - 0,0
12.01.2018 07:00:00 9,6 6,9 30 16 45 25 NNE 1013,2 - 0,0
12.01.2018 06:00:00 9,4 7,2 24 13 34 18 N 1012,7 - 0,0
12.01.2018 05:00:00 9,5 7,6 23 12 40 22 N 1012,3 - 0,2
12.01.2018 04:00:00 9,4 7,7 21 11 35 19 N 1012,0 - 0,6
12.01.2018 03:00:00 9,4 7,7 21 12 32 18 N 1012,0 - 0,0
12.01.2018 02:00:00 9,4 7,8 19 10 33 18 N 1011,5 - 0,2
12.01.2018 01:00:00 9,2 7,8 15 8 27 15 N 1011,2 - 0,0
12.01.2018 00:00:00 9,2 8,0 21 12 30 16 NNW 1011,1 - 0,0
11.01.2018 23:00:00 9,4 8,2 16 8 27 15 N 1011,1 - 0,0
11.01.2018 22:00:00 8,9 7,5 16 8 30 16 NNW 1010,6 - 2,0
11.01.2018 21:00:00 8,9 7,3 18 10 40 22 N 1010,2 - 2,2
11.01.2018 20:00:00 9,3 7,1 23 13 37 20 NNE 1009,7 - 0,0
11.01.2018 19:00:00 9,5 6,8 24 13 42 23 NNW 1009,3 - 1,4
11.01.2018 18:00:00 10,1 6,6 21 11 40 22 N 1009,1 20 0,6
11.01.2018 17:00:00 10,4 6,2 27 14 40 21 N 1008,6 - 0,0
11.01.2018 16:00:00 10,9 6,2 16 9 31 17 N 1008,5 - 0,0
11.01.2018 15:00:00 12,3 5,2 20 11 40 21 N 1008,3 - 0,0
11.01.2018 14:00:00 13,5 7,3 21 11 37 20 N 1008,2 - 0,0
11.01.2018 13:00:00 12,4 7,9 24 13 42 23 N 1008,5 12 0,0
11.01.2018 12:00:00 11,7 7,6 24 13 40 22 NNE 1009,2 - 0,0
11.01.2018 11:00:00 13,6 8,2 13 7 20 11 NNE 1009,6 - 0,0
11.01.2018 10:00:00 12,6 6,8 11 6 19 11 NNW 1009,3 - 0,0
11.01.2018 09:00:00 10,9 5,8 14 8 20 11 N 1009,5 - 0,0
11.01.2018 08:00:00 10,1 4,7 15 8 20 11 NNW 1009,3 - 0,0
11.01.2018 07:00:00 10,0 4,1 9 5 16 9 N 1009,4 18 0,0
11.01.2018 06:00:00 10,2 4,3 7 4 11 6 NNW 1009,3 - 0,0
11.01.2018 05:00:00 10,8 4,0 5 3 9 5 N 1009,4 - 0,0
11.01.2018 04:00:00 10,7 4,2 4 2 11 6 WNW 1010,1 18 0,0
11.01.2018 03:00:00 10,1 4,2 7 4 16 9 SW 1010,7 - 0,0
11.01.2018 02:00:00 10,6 4,5 13 7 17 9 N 1010,8 - 0,0
11.01.2018 01:00:00 10,6 4,1 15 8 22 12 N 1011,2 - 0,0

tt = Température de l'air
td = dewpoint
ff = Vitesse du vent
fx = gusts
dd = Direction du vent
ppp = reduced air pressure
vv = visibility
rr = Quantités de précipitations

stations d'obs. à proximité